Location: Unspecified
(0.0000°N, 0.0000°E)
Time: 22:15:51
(UTC+00:00)

ISS - Pass Details

Date: 21 May 2018
Orbit: 402 x 407 km, 51.6° (Epoch: 24 May)

Event Time Altitude Azimuth Distance (km) Brightness Sun altitude
Rises 18:27:21 0° 231° (SW) 2,320 0.5 -7.2°
Reaches altitude 10° 18:29:35 10° 242° (WSW) 1,457 -0.4 -7.7°
Maximum altitude 18:32:29 30° 305° (NW) 756 -1.5 -8.4°
Drops below altitude 10° 18:35:23 10° 9° (N) 1,448 -0.9 -9.1°
Sets 18:37:36 0° 20° (NNE) 2,302 0.0 -9.6°
